Flag for Austria Weather past 2 weeks in Vöcklabruck, Upper Austria, Austria

Now
47 °F

Cool.


Feels Like: 46 °F
Forecast: 31 / 54 °F
Wind: 3 mph from East

Location: Kremsmuenster

Current Time: Apr 18, 2015 at 3:45:17 PM

Latest Report: Apr 18, 2015 at 3:00 PM


Visibility: N/A

Pressure: 30.22 "Hg

Humidity: 58%

Dew point: 33 °F

Location of VöcklabruckLocation

Historic Weather in Vöcklabruck — Graph

°F

Vöcklabruck temperature yesterday

Maximum temperature yesterday: 61 °F (at 1:00 PM)
Minimum temperature yesterday: 47 °F (at 10:00 PM)
Average temperature yesterday: 56 °F

Past Weeks' High & Low Weather Summary

 TemperatureHumidityPressure
High74 °F (Apr 15, 5:00 PM)96% (Apr 6, 9:00 PM)30.64 "Hg (Apr 6, 9:00 PM)
Low33 °F (Apr 6, 9:00 PM)22% (Apr 16, 3:00 PM)29.83 "Hg (Apr 17, 5:00 PM)
Average50 °F63%30.22 "Hg
* Reported Apr 3 2:00 PM — Apr 18 2:00 PM, Vöcklabruck, Weather by CustomWeather, © 2015

Note: Actual official high and low records may vary slightly from our data, if they occured in-between our weather recording intervals... More about our weather records

Advertising

Vöcklabruck weather history for previous 24 hours

 ConditionsComfort  
Time TempWeatherWind HumidityBarometerVisibility
2:00 PM
Sat, Apr 18
48 °FCool.2 mph61%30.20 "HgN/A
1:00 PM46 °FCool.1 mph66%30.20 "HgN/A
12:00 PM41 °FQuite cool.5 mph78%30.22 "HgN/A
11:00 AM45 °FPartly sunny.2 mph64%30.19 "Hg6 mi
10:00 AM44 °FQuite cool.1 mph70%30.18 "HgN/A
9:00 AM42 °FQuite cool.1 mph76%30.17 "HgN/A
8:00 AM42 °FLight rain. Overcast.1 mph79%30.15 "Hg6 mi
7:00 AM42 °FOvercast.2 mph77%30.14 "Hg6 mi
6:00 AM42 °FQuite cool.1 mph79%30.11 "HgN/A
4:00 AM43 °FQuite cool.2 mph85%30.10 "HgN/A
3:00 AM44 °FQuite cool.2 mph91%30.09 "HgN/A
2:00 AM44 °FPassing clouds.8 mph90%30.07 "Hg2 mi
1:00 AM46 °FFog.1 mph94%30.06 "HgN/A
12:00 AM46 °FFog.2 mph93%30.04 "HgN/A
10:00 PM
Fri, Apr 17
47 °FFog.5 mph95%29.98 "HgN/A
9:00 PM51 °FFog.3 mph93%29.92 "HgN/A
8:00 PM51 °FRain. Overcast.7 mph91%29.88 "Hg2 mi
7:00 PM52 °FFog.6 mph92%29.88 "HgN/A
6:00 PM53 °FFog.7 mph91%29.86 "HgN/A
5:00 PM57 °FThunderstorms. Overcast.5 mph83%29.83 "Hg12 mi
4:00 PM55 °FFog.5 mph90%29.85 "HgN/A
3:00 PM55 °FCool.5 mph89%29.86 "HgN/A
Weather by CustomWeather, © 2015

See weather overviewHow to use our weather pages